Overview Statistics Trail Chart Weather Telemetry Raw packets
 

This is the latest recevied weather packets stored in our database for station/object OE6ACM-10. If no packets are shown the sender has not sent any weather packets the latest 10 day(s).

<< 80 81 82 83 84 85 86 >>
Time Temp. Humidity Pressure Rain* Wind** Luminosity Snow
1788109887 30.56° C 100% 926.8 hPa - - - -
1788109587 30.56° C 100% 926.8 hPa - - - -
1788109287 31.11° C 100% 926.8 hPa - - - -
1788108987 31.67° C 100% 926.8 hPa - - - -
1788108687 32.22° C 100% 926.7 hPa - - - -
1788108387 32.78° C 100% 926.7 hPa - - - -
1788108087 32.78° C 100% 926.7 hPa - - - -
1788107787 32.78° C 100% 926.7 hPa - - - -
1788107487 32.78° C 100% 926.6 hPa - - - -
1788107187 33.33° C 97% 926.6 hPa - - - -
1788106887 33.89° C 88% 926.6 hPa - - - -
1788106587 34.44° C 81% 926.7 hPa - - - -
1788106287 35° C 85% 926.7 hPa - - - -
1788105987 35° C 82% 926.7 hPa - - - -
1788105687 36.11° C 71% 926.7 hPa - - - -
1788105387 37.22° C 66% 926.6 hPa - - - -
1788105087 37.78° C 67% 926.7 hPa - - - -
1788104787 37.22° C 70% 926.7 hPa - - - -
1788104487 36.67° C 66% 926.7 hPa - - - -
1788104187 37.78° C 53% 926.8 hPa - - - -
1788103887 41.11° C 48% 926.7 hPa - - - -
1788103587 41.11° C 45% 926.7 hPa - - - -
1788103287 41.11° C 52% 926.8 hPa - - - -
1788103000 40.56° C 45% 926.8 hPa - - - -
1788102687 41.11° C 44% 926.8 hPa - - - -

* Rain since midnight (hover to see other rain measurements)
** Current wind speed in m/s (hover to see current wind gust speed)